PTP Alzenau

Punkttermin-Prognose für Alzenau
Modell: MOSMIX (Deutscher Wetterdienst)
Modelllaufzeit: 02 UTC
Aktualisierung: stündlich
Sonntag - 07.06.2020
| Wetter - | Temperaturen | Wind | Niederschlag | Druck | Sonne
Zeit GZ | Bewölkung | TT MAX MIN TG TM | DD FF FX1 | RR1 RR24 | PPPP | SS1 SS24
02:00 Uhr | --- | --- --- --- --- --- | --- --- --- | --- | --- | ---
03:00 Uhr | --- | --- --- --- --- --- | --- --- --- | --- | --- | ---
04:00 Uhr | --- | --- --- --- --- --- | --- --- --- | --- | --- | ---
05:00 Uhr | wolkig | 11 --- --- 10 --- | S 7 --- | 0.0 | 1007 | 0.0
06:00 Uhr | wolkig | 12 --- --- 11 --- | S 7 --- | 0.0 | 1007 | 0.1
07:00 Uhr | wolkig | 12 --- --- 12 --- | SW 9 --- | 0.0 | 1007 | 0.2
08:00 Uhr | wolkig | 13 --- 11 14 --- | SW 11 --- | 0.0 | 1008 | 0.4
09:00 Uhr | wolkig | 14 --- --- 16 --- | SW 15 --- | 0.0 | 1008 | 0.5
10:00 Uhr | wolkig | 15 --- --- 17 --- | SW 17 --- | 0.0 | 1008 | 0.6
11:00 Uhr | wolkig | 16 --- --- 18 --- | SW 18 --- | 0.0 | 1009 | 0.5
12:00 Uhr | wolkig | 17 --- --- 19 --- | SW 18 --- | 0.0 | 1009 | 0.5
13:00 Uhr | wolkig | 17 --- --- 20 --- | SW 20 --- | 0.0 | 1009 | 0.5
14:00 Uhr | wolkig | 18 --- --- 21 --- | SW 18 --- | 0.0 | 1009 | 0.4
15:00 Uhr | wolkig | 18 --- --- 21 --- | SW 18 --- | 0.0 | 1009 | 0.3
16:00 Uhr | wolkig | 18 --- --- 21 --- | SW 18 --- | 0.0 | 1009 | 0.3
17:00 Uhr | wolkig | 18 --- --- 21 --- | SW 18 --- | 0.0 | 1009 | 0.3
18:00 Uhr | wolkig | 18 --- --- 20 --- | SW 17 --- | 0.0 | 1010 | 0.3
19:00 Uhr | wolkig | 18 --- --- 18 --- | W 15 --- | 0.0 | 1010 | 0.3
20:00 Uhr | wolkig | 17 20 --- 17 --- | W 13 --- | 0.0 | 1010 | 0.3
21:00 Uhr | wolkig | 16 --- --- 15 --- | SW 11 --- | 0.0 | 1011 | 0.2
22:00 Uhr | wolkig | 14 --- --- 12 --- | SW 7 --- | 0.0 | 1011 | 0.1
23:00 Uhr | wolkig | 13 --- --- 11 --- | SW 6 --- | 0.0 | 1012 | 0.0
Montag - 08.06.2020
| Wetter - | Temperaturen | Wind | Niederschlag | Druck | Sonne
Zeit GZ | Bewölkung | TT MAX MIN TG TM | DD FF FX1 | RR1 RR24 | PPPP | SS1 SS24
00:00 Uhr | leicht bewölkt | 12 --- --- 10 --- | S 6 --- | 0.0 | 1012 | 0.0
01:00 Uhr | leicht bewölkt | 11 --- --- 9 --- | O 4 --- | 0.0 | 1013 | 0.0
02:00 Uhr | leicht bewölkt | 10 --- --- 8 --- | NO 4 --- | 0.0 | 1013 | 0.0
03:00 Uhr | leicht bewölkt | 9 --- --- 8 --- | NO 4 --- | 0.0 | 1013 | 0.0
04:00 Uhr | leicht bewölkt | 9 --- --- 7 --- | NO 4 --- | 0.0 | 1013 | 0.0
05:00 Uhr | leicht bewölkt | 9 --- --- 8 --- | NO 6 --- | 0.0 | 1013 | 0.0
06:00 Uhr | leicht bewölkt | 10 --- --- 9 --- | NO 6 --- | 0.0 | 1013 | 0.2
07:00 Uhr | leicht bewölkt | 11 --- --- 11 --- | NO 6 --- | 0.0 | 1014 | 0.4
08:00 Uhr | wolkig | 12 --- 8 14 --- | NO 7 --- | 0.0 | 1014 | 0.5
09:00 Uhr | wolkig | 14 --- --- 16 --- | NO 7 --- | 0.0 | 1014 | 0.6
10:00 Uhr | wolkig | 15 --- --- 19 --- | NO 7 --- | 0.0 | 1014 | 0.7
11:00 Uhr | wolkig | 17 --- --- 21 --- | NO 7 --- | 0.0 | 1014 | 0.7
12:00 Uhr | wolkig | 18 --- --- 22 --- | N 9 --- | 0.0 | 1014 | 0.6
13:00 Uhr | wolkig | 19 --- --- 23 --- | NO 9 --- | 0.0 | 1014 | 0.6
14:00 Uhr | wolkig | 19 --- --- 24 --- | NO 9 --- | 0.0 | 1013 | 0.5
15:00 Uhr | wolkig | 20 --- --- 24 --- | NO 9 --- | 0.0 | 1013 | 0.5
16:00 Uhr | wolkig | 20 --- --- 24 --- | NO 9 --- | 0.0 | 1013 | 0.5
17:00 Uhr | wolkig | 20 --- --- 23 --- | NO 9 --- | 0.0 | 1013 | 0.4
18:00 Uhr | wolkig | 20 --- --- 22 --- | NO 9 --- | 0.0 | 1013 | 0.4
19:00 Uhr | wolkig | 19 --- --- 20 --- | NO 9 --- | 0.0 | 1013 | 0.4
20:00 Uhr | wolkig | 18 21 --- 18 --- | NO 9 --- | 0.0 | 1013 | 0.3
21:00 Uhr | wolkig | 17 --- --- 17 --- | NO 7 --- | 0.0 | 1014 | 0.2
22:00 Uhr | wolkig | 16 --- --- 15 --- | NO 7 --- | 0.0 | 1014 | 0.1
23:00 Uhr | wolkig | 15 --- --- 14 15 | NO 7 --- | 0.0 0.0 | 1015 | 0.0 7.5
Dienstag - 09.06.2020
| Wetter - | Temperaturen | Wind | Niederschlag | Druck | Sonne
Zeit GZ | Bewölkung | TT MAX MIN TG TM | DD FF FX1 | RR1 RR24 | PPPP | SS1 SS24
00:00 Uhr | wolkig | 14 --- --- 13 --- | NO 7 --- | 0.0 | 1015 | 0.0
01:00 Uhr | wolkig | 13 --- --- 12 --- | NO 7 --- | 0.0 | 1015 | 0.0
02:00 Uhr | wolkig | 13 --- --- 12 --- | NO 7 --- | 0.0 | 1015 | 0.0
03:00 Uhr | wolkig | 12 --- --- 11 --- | NO 7 --- | 0.0 | 1015 | 0.0
04:00 Uhr | wolkig | 12 --- --- 11 --- | NO 7 --- | 0.0 | 1015 | 0.0
05:00 Uhr | wolkig | 12 --- --- 11 --- | NO 9 --- | 0.0 | 1015 | 0.0
06:00 Uhr | wolkig | 12 --- --- 12 --- | NO 9 --- | 0.0 | 1015 | 0.1
07:00 Uhr | wolkig | 13 --- --- 13 --- | NO 9 --- | 0.0 | 1016 | 0.2
08:00 Uhr | wolkig | 14 --- 11 15 --- | NO 11 --- | 0.0 | 1016 | 0.2
09:00 Uhr | wolkig | 15 --- --- 16 --- | NO 11 --- | 0.0 | 1016 | 0.3
10:00 Uhr | wolkig | 15 --- --- 18 --- | NO 13 --- | 0.0 | 1016 | 0.3
11:00 Uhr | wolkig | 16 --- --- 19 --- | NO 13 --- | 0.0 | 1016 | 0.3
12:00 Uhr | wolkig | 17 --- --- 19 --- | NO 13 --- | 0.0 | 1016 | 0.3
13:00 Uhr | wolkig | 18 --- --- 20 --- | NO 13 --- | 0.0 | 1016 | 0.3
14:00 Uhr | wolkig | 18 --- --- 20 --- | NO 15 --- | 0.0 | 1016 | 0.2
15:00 Uhr | wolkig | 18 --- --- 20 --- | NO 15 --- | 0.0 | 1016 | 0.2
16:00 Uhr | wolkig | 18 --- --- 20 --- | NO 15 --- | 0.0 | 1016 | 0.2
17:00 Uhr | wolkig | 18 --- --- 20 --- | NO 15 --- | 0.0 | 1016 | 0.1
18:00 Uhr | wolkig | 18 --- --- 19 --- | NO 15 --- | 0.0 | 1016 | 0.1
19:00 Uhr | wolkig | 18 --- --- 18 --- | NO 15 --- | 0.0 | 1016 | 0.1
20:00 Uhr | wolkig | 17 20 --- 17 --- | N 13 --- | 0.0 | 1016 | 0.1
21:00 Uhr | leichter Regen | 16 --- --- 16 --- | NO 13 --- | 0.1 | 1016 | 0.1
22:00 Uhr | leichter Regen | 16 --- --- 15 --- | NO 11 --- | 0.2 | 1017 | 0.0
23:00 Uhr | leichter Regen | 15 --- --- 14 16 | N 11 --- | 0.3 0.6 | 1017 | 0.0 3.1
Mittwoch - 10.06.2020
| Wetter - | Temperaturen | Wind | Niederschlag | Druck | Sonne
Zeit GZ | Bewölkung | TT MAX MIN TG TM | DD FF FX3 | RR3 RR24 | PPPP | SS3 SS24
02:00 Uhr | leichter Regen | 14 --- --- 13 --- | NO 9 --- | 1.7 | 1017 | 0.0
05:00 Uhr | wolkig | 13 --- --- 13 --- | NO 9 --- | 0.0 | 1017 | 0.0
08:00 Uhr | wolkig | 14 --- 12 15 --- | NO 13 --- | 0.0 | 1017 | 0.3
11:00 Uhr | wolkig | 16 --- --- 18 --- | NO 13 --- | 0.0 | 1018 | 0.7
14:00 Uhr | wolkig | 18 --- --- 20 --- | NO 15 --- | 0.0 | 1017 | 0.9
17:00 Uhr | wolkig | 18 --- --- 21 --- | N 15 --- | 0.0 | 1016 | 0.9
20:00 Uhr | wolkig | 18 20 --- 18 --- | N 13 --- | 0.0 | 1016 | 0.7
23:00 Uhr | wolkig | 15 --- --- 15 16 | NO 9 --- | 0.0 1.7 | 1017 | 0.2 3.7
Donnerstag - 11.06.2020
| Wetter - | Temperaturen | Wind | Niederschlag | Druck | Sonne
Zeit GZ | Bewölkung | TT MAX MIN TG TM | DD FF FX3 | RR3 RR24 | PPPP | SS3 SS24
02:00 Uhr | wolkig | 14 --- --- 13 --- | NO 7 --- | 0.0 | 1017 | 0.0
05:00 Uhr | wolkig | 12 --- --- 12 --- | NO 7 --- | 0.0 | 1016 | 0.0
08:00 Uhr | wolkig | 14 --- 12 15 --- | NO 9 --- | 0.0 | 1016 | 0.6
11:00 Uhr | wolkig | 17 --- --- 20 --- | NO 11 --- | 0.0 | 1016 | 1.2
14:00 Uhr | wolkig | 19 --- --- 22 --- | N 13 --- | 0.0 | 1015 | 1.2
17:00 Uhr | wolkig | 19 --- --- 22 --- | N 15 --- | 0.0 | 1014 | 1.1
20:00 Uhr | wolkig | 19 21 --- 20 --- | N 13 --- | 0.0 | 1013 | 1.1
23:00 Uhr | wolkig | 16 --- --- 16 16 | N 9 --- | 0.0 0.0 | 1014 | 0.4 5.5
Freitag - 12.06.2020
| Wetter - | Temperaturen | Wind | Niederschlag | Druck | Sonne
Zeit GZ | Bewölkung | TT MAX MIN TG TM | DD FF FX3 | RR3 RR24 | PPPP | SS3 SS24
02:00 Uhr | wolkig | 14 --- --- 14 --- | NO 7 --- | 0.0 | 1014 | 0.0
05:00 Uhr | wolkig | 14 --- --- 14 --- | NO 7 --- | 0.0 | 1013 | 0.0
08:00 Uhr | wolkig | 15 --- 13 18 --- | NO 9 --- | 0.0 | 1013 | 0.8
11:00 Uhr | wolkig | 19 --- --- 22 --- | NO 11 --- | 0.0 | 1013 | 1.4
14:00 Uhr | wolkig | 22 --- --- 25 --- | NW 13 --- | 0.0 | 1012 | 1.4
17:00 Uhr | wolkig | 22 --- --- 25 --- | N 13 --- | 0.0 | 1011 | 1.2
20:00 Uhr | wolkig | 21 24 --- 21 --- | N 11 --- | 0.0 | 1011 | 1.0
23:00 Uhr | wolkig | 18 --- --- 17 18 | NO 9 --- | 0.0 0.0 | 1012 | 0.4 6.1
Samstag - 13.06.2020
| Wetter - | Temperaturen | Wind | Niederschlag | Druck | Sonne
Zeit GZ | Bewölkung | TT MAX MIN TG TM | DD FF FX3 | RR3 RR24 | PPPP | SS3 SS24
02:00 Uhr | wolkig | 16 --- --- 15 --- | NO 7 --- | 0.0 | 1012 | 0.0
05:00 Uhr | wolkig | 14 --- --- 14 --- | O 7 --- | 0.0 | 1012 | 0.0
08:00 Uhr | wolkig | 16 --- 14 18 --- | NO 9 --- | 0.0 | 1012 | 0.7
11:00 Uhr | wolkig | 19 --- --- 23 --- | O 11 --- | 0.0 | 1012 | 1.4
14:00 Uhr | wolkig | 22 --- --- 26 --- | SW 13 --- | 0.0 | 1011 | 1.5
17:00 Uhr | wolkig | 23 --- --- 26 --- | W 13 --- | 0.0 | 1010 | 1.4
20:00 Uhr | wolkig | 21 24 --- 22 --- | NW 11 --- | 0.0 | 1010 | 1.2
23:00 Uhr | wolkig | 18 --- --- 18 19 | N 9 --- | 0.0 0.0 | 1011 | 0.4 6.4
Sonntag - 14.06.2020
| Wetter - | Temperaturen | Wind | Niederschlag | Druck | Sonne
Zeit GZ | Bewölkung | TT MAX MIN TG TM | DD FF FX3 | RR3 RR24 | PPPP | SS3 SS24
02:00 Uhr | wolkig | 16 --- --- 16 --- | NO 7 --- | 0.0 | 1012 | 0.0
05:00 Uhr | wolkig | 15 --- --- 15 --- | O 7 --- | 0.0 | 1012 | 0.0
08:00 Uhr | wolkig | 16 --- 14 19 --- | O 9 --- | 0.0 | 1013 | 0.7
11:00 Uhr | wolkig | 19 --- --- 24 --- | SW 11 --- | 0.0 | 1013 | 1.3
14:00 Uhr | wolkig | 22 --- --- 27 --- | SW 13 --- | 0.0 | 1013 | 1.3
17:00 Uhr | wolkig | 23 --- --- 25 --- | W 15 --- | 0.0 | 1012 | 1.3
20:00 Uhr | wolkig | 21 24 --- 22 --- | NW 13 --- | 0.0 | 1012 | 1.1
23:00 Uhr | wolkig | 18 --- --- 18 19 | NW 9 --- | 0.0 0.0 | 1013 | 0.4 6.0
Montag - 15.06.2020
| Wetter - | Temperaturen | Wind | Niederschlag | Druck | Sonne
Zeit GZ | Bewölkung | TT MAX MIN TG TM | DD FF FX3 | RR3 RR24 | PPPP | SS3 SS24
02:00 Uhr | wolkig | 16 --- --- 15 --- | N 7 --- | 0.0 | 1014 | 0.0
05:00 Uhr | wolkig | 15 --- --- 14 --- | O 7 --- | 0.0 | 1014 | 0.0
08:00 Uhr | wolkig | 17 --- 14 19 --- | NW 9 --- | 0.0 | 1014 | 0.8
11:00 Uhr | wolkig | 20 --- --- 24 --- | W 13 --- | 0.0 | 1015 | 1.4
14:00 Uhr | wolkig | 23 --- --- 27 --- | W 15 --- | 0.0 | 1014 | 1.4
17:00 Uhr | wolkig | 24 --- --- 26 --- | W 15 --- | 0.0 | 1014 | 1.4
20:00 Uhr | wolkig | 22 25 --- 22 --- | NW 13 --- | 0.0 | 1014 | 1.2
23:00 Uhr | wolkig | 18 --- --- 17 19 | NW 9 --- | 0.0 0.0 | 1015 | 0.4 6.5
Dienstag - 16.06.2020
| Wetter - | Temperaturen | Wind | Niederschlag | Druck | Sonne
Zeit GZ | Bewölkung | TT MAX MIN TG TM | DD FF FX3 | RR3 RR24 | PPPP | SS3 SS24
02:00 Uhr | wolkig | 16 --- --- 16 --- | N 7 --- | 0.0 | 1015 | 0.0
05:00 Uhr | wolkig | 15 --- --- 15 --- | N 9 --- | 0.0 | 1015 | 0.0
08:00 Uhr | wolkig | 17 --- 14 19 --- | N 11 --- | 0.0 | 1016 | 0.8
11:00 Uhr | wolkig | 21 --- --- 26 --- | SW 13 --- | 0.0 | 1016 | 1.5
14:00 Uhr | wolkig | 23 --- --- 28 --- | W 15 --- | 0.0 | 1014 | 1.5
17:00 Uhr | wolkig | 24 --- --- 26 --- | W 15 --- | 0.0 | 1014 | 1.4
20:00 Uhr | wolkig | 23 26 --- 23 --- | NW 13 --- | 0.0 | 1014 | 1.2
23:00 Uhr | wolkig | 19 --- --- 18 20 | N 9 --- | 0.0 0.0 | 1015 | 0.4 6.7
Mittwoch - 17.06.2020
| Wetter - | Temperaturen | Wind | Niederschlag | Druck | Sonne
Zeit GZ | Bewölkung | TT MAX MIN TG TM | DD FF FX3 | RR3 RR24 | PPPP | SS3 SS24
02:00 Uhr | wolkig | 17 --- --- 16 --- | N 9 --- | 0.0 | 1016 | 0.0
---:00 Uhr | --- | --- --- --- --- --- | --- --- --- | --- | --- | ---
---:00 Uhr | --- | --- --- --- --- --- | --- --- --- | --- | --- | ---
---:00 Uhr | --- | --- --- --- --- --- | --- --- --- | --- | --- | ---
---:00 Uhr | --- | --- --- --- --- --- | --- --- --- | --- | --- | ---
---:00 Uhr | --- | --- --- --- --- --- | --- --- --- | --- | --- | ---
---:00 Uhr | --- | --- --- --- --- --- | --- --- --- | --- | --- | ---
---:00 Uhr | --- | --- --- --- --- --- | --- --- --- | --- --- | --- | ---


Wetter : Wetter/Bewölkung zum Termin (aktuelle Stunde) TT : Lufttemperatur in Grad Celsius zum Termin MAX : Maximum Lufttemperatur in Grad Celsius letzte 12 Stunden MIN : Minimum Lufttemperatur der vergangenen Nacht in Grad Celsius letzte 12 Stunden TG : Temperatur in 5cm überm Erdboden TM : Tagesmittel Lufttemperatur in Grad Celsius letzte 24 Stunden DD : Windrichtung zum Termin FF : Windgeschwindigkeit zum Termin FX1 : höchste Windspitze im Bezugszeitraum letzte 1 Stunde in km/h FX3 : höchste Windspitze im Bezugszeitraum letzte 3 Stunden in km/h PPPP : reduzierter Luftdruck auf Meereshöhe in hPa zum Termin RR1 : Niederschlagsmenge im Bezugszeitraum letzte 1 Stunde in mm = l/qm RR3 : Niederschlagsmenge im Bezugszeitraum letzte 3 Stunden in mm = l/qm RR24 : Niederschlagsmenge im Bezugszeitraum letzte 24 Stunden in mm = l/qm SS1 : Sonnenscheindauer letzte 1 Stunde SS3 : Sonnenscheindauer letzte 3 Stunden SS24 : Sonnenscheindauer letzte 24 Stunden --- : Wert nicht vorhanden